Location: Newark
(48.1500°N, 2.9667°W)
Time: 20:22:51
(UTC+00:00)

A-11 Canister half - Pass Details

Date: 29 January 2020
Orbit: 1524 x 1684 km, 47.3° (Epoch: 19 February)

Event Time Altitude Azimuth Distance (km) Brightness Sun altitude
Rises 14:47:09 0° 189° (S) 4,661 12.7 16.7°
Reaches altitude 10° 14:51:05 10° 175° (S) 3,681 11.9 16.3°
Maximum altitude 14:57:32 22° 130° (SE) 2,891 10.6 15.6°
Drops below altitude 10° 15:04:02 10° 85° (E) 3,725 10.7 15.0°
Sets 15:08:01 0° 71° (ENE) 4,732 11.0 14.5°
